Vienna, OH

10:07 PM EST on December 09, 2016 (GMT -0500)
Youngstown-Warren Regional

Weather History for KYNG - December, 2014

Change the Weather History Date:

Saturday, December 13, 2014

  Actual Average Record
Temperature  
Mean Temperature 33 °F 31 °F  
Max Temperature 38 °F 37 °F 63 °F (2015)
Min Temperature 28 °F 25 °F -5 °F (1962)
Degree Days  
Heating Degree Days 32 34  
Month to date heating degree days 401 415  
Since 1 July heating degree days 1811 1744  
Cooling Degree Days 0 0  
Month to date cooling degree days 0 0  
Year to date cooling degree days 533 544  
Moisture  
Dew Point 30 °F    
Average Humidity 93    
Maximum Humidity 100    
Minimum Humidity 85    
Precipitation  
Precipitation T in 0.10 in 0.57 in (2007)
Month to date precipitation 1.20 1.32  
Year to date precipitation 38.15 37.24  
Snow  
Snow 0.00 in 0.50 in - ()
Month to date snowfall 0.2 5.8  
Since 1 July snowfall 11.8 10.2  
Snow Depth 0.00 in    
Sea Level Pressure  
Sea Level Pressure 30.14 in    
Wind  
Wind Speed 9 mph (SW)    
Max Wind Speed 15 mph    
Max Gust Speed 19 mph    
Visibility 2 miles    
Events Fog    
T = Trace of Precipitation, MM = Missing Value Source: NWS Daily Summary

Daily Weather History Graph

Daily Weather History Graph

Search for Another Location

Airport or City:

Trip Planner

Search our weather history database for the weather conditions in past years. The results will help you decide how hot, cold, wet, or windy it might be!

Date:

Astronomy

Dec. 13, 2014 Rise Set
Actual Time 7:39 AM EST 4:53 PM EST
Civil Twilight 7:08 AM EST 5:25 PM EST
Nautical Twilight 6:33 AM EST 5:59 PM EST
Astronomical Twilight 6:00 AM EST 6:33 PM EST
Moon 11:57 PM EST (12/13) 11:59 AM EST (12/13)
Length of Visible Light 10h 16m
Length of Day
9h 14m
Waning Gibbous, 58% of the Moon is Illuminated
Dec 13
Waning Gibbous
Dec 14
Last Quarter
Dec 21
New
Dec 28
First Quarter
Jan 4
Full

Hourly Weather History & Observations

Time (EST) Temp. Windchill Dew Point Humidity Pressure Visibility Wind Dir Wind Speed Gust Speed Precip Events Conditions
12:51 AM 28.9 °F 22.8 °F 26.1 °F 89% 30.20 in 4.0 mi SW 5.8 mph - N/A   Overcast
1:51 AM 30.0 °F 23.2 °F 26.1 °F 85% 30.20 in 3.0 mi SW 6.9 mph - N/A   Overcast
2:51 AM 30.9 °F 23.5 °F 28.0 °F 89% 30.20 in 3.0 mi WSW 8.1 mph - N/A   Overcast
3:51 AM 30.9 °F 23.5 °F 28.0 °F 89% 30.20 in 3.0 mi West 8.1 mph - N/A   Overcast
4:51 AM 30.9 °F 22.2 °F 28.0 °F 89% 30.18 in 3.0 mi West 10.4 mph - N/A   Overcast
5:35 AM 30.0 °F 21.7 °F 28.0 °F 92% 30.14 in 3.0 mi WSW 9.2 mph - N/A   Overcast
5:51 AM 30.0 °F 21.1 °F 28.0 °F 92% 30.19 in 3.0 mi WSW 10.4 mph - N/A   Overcast
6:51 AM 30.0 °F 21.7 °F 28.0 °F 92% 30.20 in 3.0 mi West 9.2 mph - N/A   Overcast
7:14 AM 28.9 °F 19.2 °F 28.0 °F 96% 30.15 in 2.0 mi WSW 11.5 mph - N/A   Overcast
7:26 AM 28.9 °F 18.6 °F 28.0 °F 96% 30.15 in 1.5 mi WSW 12.7 mph - N/A   Overcast
7:37 AM 28.9 °F 19.8 °F 28.0 °F 96% 30.16 in 0.8 mi West 10.4 mph - N/A   Overcast
7:51 AM 28.9 °F 19.8 °F 27.0 °F 92% 30.21 in 0.8 mi West 10.4 mph - N/A   Overcast
8:28 AM 28.0 °F 18.6 °F 27.0 °F 96% 30.18 in 1.5 mi West 10.4 mph - N/A   Overcast
8:51 AM 28.0 °F 18.6 °F 26.1 °F 92% 30.22 in 1.5 mi WSW 10.4 mph - N/A   Overcast
9:47 AM 28.4 °F 19.7 °F 26.6 °F 93% 30.18 in 2.5 mi West 9.2 mph - N/A   Overcast
9:51 AM 28.0 °F 20.8 °F 26.1 °F 92% 30.22 in 2.5 mi WSW 6.9 mph - N/A   Overcast
10:51 AM 28.9 °F 19.8 °F 27.0 °F 92% 30.21 in 2.5 mi SW 10.4 mph - N/A   Overcast
11:51 AM 30.0 °F 22.4 °F 27.0 °F 88% 30.19 in 5.0 mi SW 8.1 mph - N/A   Overcast
12:35 PM 30.0 °F 23.2 °F 28.0 °F 92% 30.13 in 2.0 mi SSW 6.9 mph - N/A   Overcast
12:51 PM 30.0 °F 21.1 °F 28.0 °F 92% 30.16 in 1.5 mi SSW 10.4 mph - N/A   Overcast
1:43 PM 30.9 °F 22.2 °F 28.9 °F 92% 30.10 in 1.0 mi SW 10.4 mph - 0.00 in   Light Freezing Drizzle
1:51 PM 30.9 °F 23.5 °F 30.0 °F 96% 30.14 in 1.0 mi SW 8.1 mph - 0.00 in   Light Freezing Drizzle
2:51 PM 32.0 °F 24.2 °F 30.0 °F 92% 30.12 in 1.0 mi SSW 9.2 mph - 0.00 in   Light Freezing Drizzle
3:36 PM 32.0 °F 24.2 °F 30.9 °F 96% 30.08 in 0.8 mi SW 9.2 mph - 0.00 in   Light Freezing Drizzle
3:51 PM 32.0 °F 23.0 °F 30.9 °F 96% 30.12 in 0.5 mi SW 11.5 mph - 0.00 in Fog Light Freezing Drizzle
4:36 PM 33.1 °F 23.4 °F 30.9 °F 92% 30.08 in 1.5 mi WSW 13.8 mph - 0.00 in   Overcast
4:43 PM 33.1 °F 23.9 °F 30.9 °F 92% 30.08 in 2.0 mi WSW 12.7 mph - 0.00 in   Overcast
4:51 PM 33.1 °F 23.4 °F 30.9 °F 92% 30.12 in 2.5 mi WSW 13.8 mph - 0.00 in   Overcast
4:57 PM 33.1 °F 24.9 °F 30.9 °F 92% 30.08 in 3.0 mi WSW 10.4 mph - N/A   Overcast
5:51 PM 33.1 °F 26.9 °F 32.0 °F 96% 30.10 in 4.0 mi WSW 6.9 mph - N/A   Overcast
6:22 PM 33.1 °F 26.1 °F 32.0 °F 96% 30.06 in 2.5 mi SW 8.1 mph - N/A   Overcast
6:51 PM 33.1 °F 27.7 °F 33.1 °F 100% 30.10 in 2.0 mi SW 5.8 mph - N/A   Overcast
7:21 PM 34.0 °F 26.6 °F 33.1 °F 96% 30.06 in 1.5 mi SW 9.2 mph - N/A   Overcast
7:51 PM 34.0 °F 27.2 °F 33.1 °F 96% 30.09 in 1.0 mi SW 8.1 mph - N/A Fog Overcast
8:51 PM 36.0 °F 29.0 °F 35.1 °F 97% 30.08 in 1.0 mi SW 9.2 mph - N/A Fog Overcast
9:30 PM 37.0 °F 30.4 °F 36.0 °F 96% 30.04 in 0.8 mi WSW 9.2 mph - N/A Fog Overcast
9:51 PM 37.0 °F 30.4 °F 36.0 °F 96% 30.07 in 0.8 mi SW 9.2 mph - N/A Fog Overcast
10:05 PM 37.0 °F 30.4 °F 36.0 °F 96% 30.03 in 0.1 mi WSW 9.2 mph - N/A Fog Fog
10:51 PM 37.9 °F 32.1 °F 37.0 °F 97% 30.06 in 0.1 mi SW 8.1 mph - N/A Fog Fog
11:51 PM 37.9 °F 30.9 °F 37.0 °F 97% 30.05 in 0.8 mi SW 10.4 mph - 0.00 in   Light Drizzle